Location: Erba
(45.8000°N, 9.2500°E)
Time: 11:02:11
(UTC+02:00)

ISS - Pass Details

Date: 06 July 2020
Orbit: 417 x 420 km, 51.6° (Epoch: 02 July)

Event Time Altitude Azimuth Distance (km) Brightness Sun altitude
Rises 04:56:37 0° 281° (W) 2,360 -0.3 -6.8°
Reaches altitude 10° 04:58:53 10° 292° (WNW) 1,496 -1.2 -6.5°
Maximum altitude 05:01:53 29° 355° (N) 794 -1.9 -6.1°
Drops below altitude 10° 05:04:53 10° 59° (ENE) 1,496 0.8 -5.7°
Sets 05:07:09 0° 70° (ENE) 2,360 1.6 -5.4°
